Date,TemperatureHighF,TemperatureAvgF,TemperatureLowF,DewpointHighF,DewpointAvgF,DewpointLowF,HumidityHigh,HumidityAvg,HumidityLow,PressureMaxIn,PressureMinIn,WindSpeedMaxMPH,WindSpeedAvgMPH,GustSpeedMaxMPH,PrecipitationSumIn
2013-4-1,32.5,24.7,18.5,21.4,16.7,12.3,82,71,58,30.35,30.19,23,14,29,0.00
2013-4-2,36.5,28.4,21.0,23.8,20.3,18.2,89,73,49,30.39,30.32,16,5,19,0.00
2013-4-3,52.0,37.1,23.1,37.6,28.0,18.8,87,71,55,30.40,30.08,31,12,33,0.00
2013-4-4,47.9,40.1,29.7,35.5,31.7,26.3,87,72,56,30.21,30.03,23,13,27,0.00
2013-4-5,43.3,34.4,27.1,33.1,28.1,23.3,90,78,62,30.24,29.80,21,9,31,0.00
2013-4-6,56.8,44.8,34.8,47.4,39.1,32.1,91,81,68,29.81,29.50,31,14,31,0.09
2013-4-7,48.6,38.6,31.4,43.7,35.2,29.4,94,88,72,29.95,29.71,21,7,21,0.16
2013-4-8,48.8,44.1,40.2,46.8,42.3,37.4,97,93,89,30.02,29.64,21,6,21,0.29
2013-4-9,40.4,34.9,31.0,37.4,32.2,29.2,95,90,82,30.16,29.95,28,10,29,0.92
2013-4-10,32.7,31.2,29.2,32.0,29.5,27.4,100,93,88,30.16,29.87,33,9,33,0.29
2013-4-11,34.7,32.2,29.7,32.3,30.8,28.7,96,94,90,29.89,29.66,20,9,20,0.67
2013-4-12,32.3,29.4,26.1,29.8,27.2,24.9,96,91,83,29.92,29.70,22,13,23,0.09
2013-4-13,40.5,30.8,26.8,28.4,26.2,24.3,94,84,61,29.97,29.91,21,8,21,0.00
2013-4-14,37.2,33.3,30.2,35.1,30.6,26.2,95,90,80,29.92,29.37,28,12,28,0.07
2013-4-15,38.4,34.6,30.3,31.5,29.1,25.3,85,80,74,30.06,29.53,38,18,38,0.00
2013-4-16,40.9,34.5,29.2,32.5,29.0,25.2,87,80,70,30.34,30.05,19,8,19,0.00
2013-4-17,40.5,35.8,32.6,35.6,32.3,29.9,96,87,79,30.33,29.91,21,8,21,0.23
2013-4-18,32.8,31.6,30.3,31.7,30.3,29.3,96,95,92,29.94,29.64,33,16,33,0.16
2013-4-19,32.0,29.0,25.2,29.5,26.8,22.8,96,92,86,30.08,29.65,33,18,33,0.02
2013-4-20,36.9,29.2,18.4,30.8,22.5,15.7,91,77,52,30.33,30.08,19,6,19,0.00
2013-4-21,51.4,40.9,32.9,46.3,36.9,30.6,93,86,77,30.31,30.01,27,12,27,0.09
2013-4-22,38.6,34.2,29.9,35.5,31.4,28.6,96,90,81,30.23,30.13,24,11,24,0.13
2013-4-23,36.7,29.6,22.0,28.6,24.7,19.0,95,82,61,30.26,30.13,25,14,25,0.01
2013-4-24,47.1,35.6,25.8,35.4,29.1,22.7,91,78,53,30.13,29.96,33,12,33,0.03
2013-4-25,55.2,40.1,27.2,40.0,30.2,22.4,89,69,47,30.25,30.01,24,10,24,0.00
2013-4-26,70.7,56.9,46.7,48.7,41.3,36.2,74,58,33,30.12,29.92,32,10,32,0.00
2013-4-27,75.3,57.4,35.9,48.0,39.2,32.7,92,57,25,30.13,29.85,22,4,22,0.00
2013-4-28,84.5,65.0,49.2,52.4,47.8,43.2,85,58,26,29.85,29.60,32,14,32,0.01
2013-4-29,74.4,60.3,44.1,56.2,47.4,38.8,87,65,42,29.80,29.44,24,7,24,0.00
2013-4-30,67.7,62.6,54.7,60.0,45.3,30.8,82,56,27,29.96,29.33,33,14,33,0.00